Weather History for Hickory, NC

Change the Weather History Date:

Wednesday, October 12, 2011

  Actual Average Record
Temperature  
Mean Temperature 66 °F -  
Max Temperature 75 °F 71 °F 88 °F (1954)
Min Temperature 57 °F 49 °F 34 °F (1964)
Cooling Degree Days 1    
Growing Degree Days 16 (Base 50)    
Moisture  
Dew Point 59 °F    
Average Humidity 91    
Maximum Humidity 100    
Minimum Humidity 62    
Precipitation  
Precipitation 0.43 in - - ()
Sea Level Pressure  
Sea Level Pressure 29.85 in    
Wind  
Wind Speed 3 mph (NNW)    
Max Wind Speed 7 mph    
Max Gust Speed -    
Visibility 7 miles    
Events Rain    
Averages and records for this station are not official NWS values.
T = Trace of Precipitation, MM = Missing Value Source: NWS Daily Summary

Daily Weather History Graph

Daily Weather History Graph

Search for Another Location

Airport:

Trip Planner

Search our weather history database for the weather conditions in past years. The results will help you decide how hot, cold, wet, or windy it might be!

Date:

Astronomy

Oct. 12, 2011 Rise Set
Actual Time 7:29 AM EDT 6:54 PM EDT
Civil Twilight 7:03 AM EDT 7:19 PM EDT
Nautical Twilight 6:34 AM EDT 7:49 PM EDT
Astronomical Twilight 6:04 AM EDT 8:19 PM EDT
Moon 6:59 PM EDT (10/12) 7:59 AM EDT (10/12)
Length of Visible Light 12h 16m
Length of Day
11h 24m
Full, 100% of the Moon is Illuminated
Oct 12
Full
Oct 19
Last Quarter
Oct 26
New
Nov 2
First Quarter
Nov 10
Full

Hourly Weather History & Observations

Time (EDT) Temp. Dew Point Humidity Pressure Visibility Wind Dir Wind Speed Gust Speed Precip Events Conditions
12:22 AM 57.2 °F 55.4 °F 94% 29.95 in 2.5 mi NW 4.6 mph - 0.02 in Rain Light Rain
12:44 AM 57.2 °F 55.4 °F 94% 29.95 in 3.0 mi NW 4.6 mph - 0.05 in Rain Light Rain
12:53 AM 57.0 °F 55.9 °F 96% 29.90 in 2.5 mi NNW 4.6 mph - 0.09 in Rain Heavy Rain
1:03 AM 57.2 °F 55.4 °F 94% 29.94 in 1.5 mi NNW 4.6 mph - 0.09 in Rain Heavy Rain
1:13 AM 57.2 °F 55.4 °F 94% 29.93 in 3.0 mi NNW 4.6 mph - 0.13 in Rain Rain
1:19 AM 57.2 °F 55.4 °F 94% 29.93 in 3.0 mi NNW 4.6 mph - 0.16 in Rain Heavy Rain
1:25 AM 57.2 °F 55.4 °F 94% 29.93 in 2.5 mi NNW 5.8 mph - 0.19 in Rain Heavy Rain
1:28 AM 57.2 °F 55.4 °F 94% 29.93 in 3.0 mi NW 6.9 mph - 0.20 in Rain Rain
1:41 AM 57.2 °F 55.4 °F 94% 29.92 in 3.0 mi North 4.6 mph - 0.24 in Rain Rain
1:53 AM 57.0 °F 55.9 °F 96% 29.88 in 3.0 mi NNW 3.5 mph - 0.28 in Rain Rain
2:00 AM 57.2 °F 55.4 °F 94% 29.92 in 4.0 mi North 3.5 mph - 0.01 in Rain Rain
2:09 AM 57.2 °F 55.4 °F 94% 29.91 in 6.0 mi NNW 3.5 mph - 0.02 in Rain Rain
2:45 AM 57.2 °F 57.2 °F 100% 29.90 in 7.0 mi North 4.6 mph - 0.04 in Rain Light Rain
2:53 AM 57.0 °F 57.0 °F 100% 29.86 in 6.0 mi NNW 3.5 mph - 0.04 in Rain Light Rain
3:53 AM 57.0 °F 57.0 °F 100% 29.85 in 6.0 mi NNW 3.5 mph - 0.01 in Rain Light Rain
4:10 AM 57.2 °F 57.2 °F 100% 29.88 in 9.0 mi Calm Calm - N/A   Overcast
4:53 AM 57.9 °F 57.0 °F 97% 29.83 in 10.0 mi NW 3.5 mph - N/A   Overcast
5:12 AM 57.2 °F 57.2 °F 100% 29.87 in 6.0 mi Calm Calm - N/A   Overcast
5:23 AM 57.2 °F 57.2 °F 100% 29.87 in 6.0 mi Calm Calm - N/A   Overcast
5:34 AM 57.2 °F 57.2 °F 100% 29.87 in 5.0 mi WNW 3.5 mph - N/A   Overcast
5:51 AM 57.2 °F 57.2 °F 100% 29.88 in 2.5 mi WNW 3.5 mph - N/A   Overcast
5:53 AM 57.9 °F 57.0 °F 97% 29.84 in 2.5 mi WNW 3.5 mph - N/A   Overcast
6:06 AM 57.2 °F 57.2 °F 100% 29.88 in 3.0 mi Calm Calm - 0.01 in   Overcast
6:43 AM 57.2 °F 57.2 °F 100% 29.89 in 4.0 mi NW 3.5 mph - 0.01 in   Overcast
6:53 AM 57.9 °F 57.0 °F 97% 29.84 in 3.0 mi Calm Calm - 0.01 in   Overcast
7:08 AM 57.2 °F 57.2 °F 100% 29.88 in 5.0 mi Calm Calm - N/A   Overcast
7:27 AM 57.2 °F 57.2 °F 100% 29.88 in 10.0 mi Calm Calm - N/A   Overcast
7:46 AM 57.2 °F 57.2 °F 100% 29.88 in 10.0 mi NNW 3.5 mph - N/A   Overcast
7:53 AM 57.9 °F 57.9 °F 100% 29.85 in 10.0 mi Calm Calm - N/A   Overcast
8:00 AM 57.2 °F 57.2 °F 100% 29.89 in 10.0 mi WNW 3.5 mph - N/A   Overcast
8:32 AM 59.0 °F 57.2 °F 94% 29.89 in 10.0 mi Calm Calm - N/A   Overcast
8:53 AM 60.8 °F 57.2 °F 88% 29.89 in 10.0 mi Calm Calm - N/A   Mostly Cloudy
9:09 AM 60.8 °F 57.2 °F 88% 29.89 in 10.0 mi Calm Calm - N/A   Overcast
9:53 AM 62.1 °F 60.1 °F 93% 29.85 in 10.0 mi NNE 4.6 mph - N/A   Overcast
10:25 AM 62.6 °F 60.8 °F 94% 29.88 in 10.0 mi NNE 4.6 mph - N/A   Overcast
10:41 AM 64.4 °F 60.8 °F 88% 29.87 in 10.0 mi NNE 5.8 mph - N/A   Overcast
10:53 AM 64.0 °F 61.0 °F 90% 29.83 in 10.0 mi North 4.6 mph - N/A   Overcast
11:36 AM 64.4 °F 60.8 °F 88% 29.87 in 10.0 mi Calm Calm - N/A   Overcast
11:53 AM 64.0 °F 60.1 °F 87% 29.83 in 10.0 mi Calm Calm - N/A   Overcast
12:10 PM 66.2 °F 60.8 °F 83% 29.86 in 10.0 mi Calm Calm - N/A   Mostly Cloudy
12:19 PM 68.0 °F 60.8 °F 78% 29.86 in 10.0 mi Calm Calm - N/A   Scattered Clouds
12:53 PM 70.0 °F 61.0 °F 73% 29.80 in 10.0 mi Calm Calm - N/A   Partly Cloudy
1:53 PM 73.0 °F 61.0 °F 66% 29.76 in 10.0 mi NNE 4.6 mph - N/A   Clear
2:53 PM 75.0 °F 61.0 °F 62% 29.74 in 10.0 mi East 3.5 mph - N/A   Clear
3:53 PM 72.0 °F 61.0 °F 68% 29.74 in 10.0 mi Calm Calm - N/A   Clear
4:09 PM 75.2 °F 62.6 °F 65% 29.79 in 10.0 mi East 6.9 mph - N/A   Mostly Cloudy
4:53 PM 73.0 °F 62.1 °F 68% 29.74 in 10.0 mi East 5.8 mph - N/A   Scattered Clouds
5:53 PM 72.0 °F 62.1 °F 71% 29.74 in 10.0 mi Variable 3.5 mph - N/A   Partly Cloudy
6:53 PM 68.0 °F 61.0 °F 78% 29.75 in 10.0 mi Calm Calm - N/A   Clear
7:53 PM 66.0 °F 62.1 °F 87% 29.76 in 10.0 mi Calm Calm - N/A   Overcast
8:53 PM 64.9 °F 63.0 °F 93% 29.76 in 10.0 mi Calm Calm - N/A   Overcast
9:53 PM 66.2 °F 62.6 °F 88% 29.81 in 10.0 mi Calm Calm - N/A   Overcast
10:53 PM 64.0 °F 63.0 °F 96% 29.76 in 10.0 mi North 3.5 mph - 0.00 in   Overcast
11:14 PM 64.4 °F 62.6 °F 94% 29.81 in 10.0 mi Calm Calm - N/A   Overcast
11:53 PM 64.9 °F 63.0 °F 93% 29.75 in 10.0 mi ENE 3.5 mph - N/A   Overcast